| time (UTC) | temp F | wind direction | speed MPH | gust MPH | rain 1hr in | rain 24hr in | rain mn in | humidity % | barometer mb |
| 20260509105252 | 52 | 266 | 0.0 | 0.0 | 0.00 | 0.64 | 0.59 | 100 | 1003.1 |
| 20260509104800 | 52 | 266 | 0.0 | 0.0 | 0.00 | 0.64 | 0.59 | 100 | 1003.2 |
| 20260509104249 | 52 | 266 | 0.0 | 0.0 | 0.00 | 0.64 | 0.59 | 100 | 1003.2 |
| 20260509104152 | 52 | 266 | 0.0 | 0.0 | 0.00 | 0.64 | 0.59 | 99 | 1003.2 |
| 20260509103247 | 52 | 265 | 0.0 | 0.0 | 0.00 | 0.64 | 0.59 | 99 | 1003.3 |
| 20260509103145 | 52 | 266 | 0.0 | 0.0 | 0.00 | 0.64 | 0.59 | 99 | 1003.5 |
| 20260509102249 | 52 | 266 | 0.0 | 0.0 | 0.00 | 0.64 | 0.59 | 99 | 1003.5 |
| 20260509101759 | 53 | 266 | 0.0 | 0.0 | 0.00 | 0.64 | 0.59 | 100 | 1003.6 |
| 20260509101244 | 53 | 266 | 0.0 | 0.0 | 0.00 | 0.64 | 0.59 | 100 | 1003.6 |
| 20260509100738 | 53 | 266 | 0.0 | 0.0 | 0.00 | 0.64 | 0.59 | 100 | 1003.5 |
| 20260509100614 | 52 | 266 | 0.0 | 0.0 | 0.00 | 0.65 | 0.59 | 100 | 1003.6 |
| 20260509095731 | 52 | 265 | 0.0 | 0.0 | 0.00 | 0.65 | 0.59 | 100 | 1003.7 |
| 20260509095235 | 52 | 266 | 0.0 | 0.0 | 0.00 | 0.65 | 0.59 | 100 | 1003.6 |
| 20260509094737 | 52 | 266 | 0.0 | 0.0 | 0.00 | 0.65 | 0.59 | 100 | 1003.7 |
| 20260509094232 | 51 | 266 | 0.0 | 0.0 | 0.00 | 0.65 | 0.59 | 100 | 1003.7 |
| 20260509093723 | 51 | 265 | 0.0 | 0.0 | 0.00 | 0.68 | 0.59 | 99 | 1003.8 |
| 20260509093612 | 51 | 265 | 0.0 | 0.0 | 0.00 | 0.70 | 0.59 | 99 | 1003.8 |
| 20260509092712 | 51 | 266 | 0.0 | 0.0 | 0.00 | 0.72 | 0.59 | 99 | 1003.6 |
| 20260509092206 | 51 | 266 | 0.0 | 0.0 | 0.00 | 0.73 | 0.59 | 99 | 1003.6 |
| 20260509091831 | 51 | 266 | 0.0 | 0.0 | 0.00 | 0.75 | 0.59 | 99 | 1003.6 |
| 20260509091814 | 51 | 266 | 0.0 | 0.0 | 0.00 | 0.76 | 0.59 | 99 | 1003.7 |
| 20260509091727 | 51 | 266 | 0.0 | 0.0 | 0.00 | 0.75 | 0.59 | 99 | 1003.7 |
| 20260509085636 | 52 | 266 | 0.0 | 0.0 | 0.00 | 0.77 | 0.59 | 99 | 1003.6 |
| 20260509085343 | 52 | 266 | 0.0 | 0.0 | 0.00 | 0.77 | 0.59 | 99 | 1003.5 |
| 20260509085238 | 52 | 266 | 0.0 | 0.0 | 0.00 | 0.77 | 0.59 | 99 | 1003.5 |
| 20260509083619 | 52 | 266 | 0.0 | 0.0 | 0.00 | 0.78 | 0.59 | 99 | 1003.6 |
| 20260509083114 | 52 | 266 | 0.0 | 0.0 | 0.00 | 0.79 | 0.59 | 99 | 1003.7 |
| 20260509083012 | 51 | 266 | 0.0 | 0.0 | 0.00 | 0.79 | 0.59 | 99 | 1003.5 |
| 20260509082118 | 51 | 266 | 0.0 | 0.0 | 0.00 | 0.80 | 0.59 | 99 | 1003.5 |
| 20260509081614 | 51 | 266 | 0.0 | 0.0 | 0.00 | 0.81 | 0.59 | 99 | 1003.4 |
| 20260509081113 | 51 | 265 | 0.0 | 0.0 | 0.00 | 0.81 | 0.59 | 98 | 1003.3 |
| 20260509080615 | 51 | 266 | 0.0 | 0.0 | 0.00 | 0.81 | 0.59 | 98 | 1003.3 |
| 20260509080257 | 51 | 266 | 0.0 | 0.0 | 0.00 | 0.82 | 0.59 | 98 | 1003.3 |
| 20260509075111 | 52 | 265 | 0.0 | 0.0 | 0.00 | 0.82 | 0.59 | 98 | 1003.5 |
| 20260509074610 | 52 | 265 | 0.0 | 0.0 | 0.00 | 0.82 | 0.59 | 98 | 1003.4 |
| 20260509074106 | 52 | 265 | 0.0 | 0.0 | 0.00 | 0.83 | 0.59 | 98 | 1003.4 |
| 20260509073609 | 52 | 266 | 0.0 | 0.0 | 0.00 | 0.83 | 0.59 | 98 | 1003.5 |
| 20260509073106 | 52 | 266 | 0.0 | 0.0 | 0.00 | 0.83 | 0.59 | 98 | 1003.4 |
| 20260509072607 | 52 | 266 | 0.0 | 0.0 | 0.00 | 0.84 | 0.59 | 97 | 1003.3 |
| 20260509072502 | 52 | 266 | 0.0 | 0.0 | 0.00 | 0.85 | 0.59 | 97 | 1003.3 |
| 20260509071612 | 53 | 266 | 0.0 | 0.0 | 0.00 | 0.85 | 0.59 | 97 | 1003.4 |
| 20260509071113 | 53 | 266 | 0.0 | 0.0 | 0.00 | 0.86 | 0.59 | 97 | 1003.2 |
| 20260509070612 | 53 | 266 | 0.0 | 0.0 | 0.00 | 0.86 | 0.59 | 97 | 1003.0 |
| 20260509070120 | 53 | 266 | 0.0 | 0.0 | 0.00 | 0.86 | 0.59 | 97 | 1002.9 |
| 20260509065605 | 54 | 266 | 0.0 | 0.0 | 0.00 | 0.87 | 0.59 | 97 | 1003.0 |
| 20260509065104 | 54 | 266 | 0.0 | 0.0 | 0.00 | 0.87 | 0.59 | 97 | 1003.0 |
| 20260509064959 | 54 | 302 | 0.0 | 0.0 | 0.00 | 0.87 | 0.59 | 97 | 1003.0 |
| 20260509064511 | 54 | 302 | 0.0 | 0.0 | 0.00 | 0.87 | 0.59 | 97 | 1003.1 |
| 20260509063602 | 54 | 302 | 0.0 | 1.0 | 0.00 | 0.87 | 0.59 | 97 | 1002.9 |
| 20260509063101 | 54 | 302 | 0.0 | 1.0 | 0.00 | 0.87 | 0.59 | 97 | 1002.8 |
| 20260509062953 | 54 | 303 | 0.0 | 0.0 | 0.00 | 0.87 | 0.59 | 96 | 1002.9 |
| 20260509062234 | 54 | 303 | 0.0 | 0.0 | 0.00 | 0.87 | 0.59 | 96 | 1002.7 |
| 20260509061055 | 55 | 303 | 0.0 | 0.0 | 0.00 | 0.87 | 0.59 | 96 | 1002.8 |
| 20260509060555 | 56 | 303 | 0.0 | 0.0 | 0.00 | 0.87 | 0.59 | 96 | 1002.7 |
| 20260509060056 | 56 | 303 | 0.0 | 0.0 | 0.00 | 0.87 | 0.59 | 96 | 1002.7 |
| 20260509055552 | 56 | 303 | 0.0 | 0.0 | 0.00 | 0.87 | 0.59 | 96 | 1002.7 |
| 20260509055050 | 56 | 303 | 0.0 | 0.0 | 0.00 | 0.87 | 0.59 | 95 | 1002.7 |
| 20260509054952 | 57 | 303 | 0.0 | 0.0 | 0.00 | 0.87 | 0.59 | 95 | 1002.8 |
| 20260509054511 | 57 | 303 | 0.0 | 0.0 | 0.00 | 0.87 | 0.59 | 95 | 1002.8 |
| 20260509053733 | 57 | 303 | 0.0 | 0.0 | 0.00 | 0.87 | 0.59 | 95 | 1002.7 |
| 20260509052553 | 58 | 303 | 0.0 | 0.0 | 0.00 | 0.87 | 0.59 | 94 | 1002.7 |
| 20260509052051 | 59 | 303 | 0.0 | 0.0 | 0.00 | 0.87 | 0.59 | 93 | 1002.8 |
| 20260509051940 | 59 | 303 | 0.0 | 0.0 | 0.00 | 0.87 | 0.59 | 93 | 1002.7 |
| 20260509051047 | 60 | 303 | 0.0 | 0.0 | 0.00 | 0.87 | 0.59 | 93 | 1002.8 |
| 20260509050547 | 60 | 305 | 0.0 | 0.0 | 0.00 | 0.87 | 0.59 | 92 | 1002.7 |
| 20260509050048 | 60 | 305 | 0.0 | 0.0 | 0.00 | 0.87 | 0.59 | 91 | 1002.9 |
| 20260509045551 | 61 | 305 | 0.0 | 0.0 | 0.00 | 0.87 | 0.59 | 91 | 1002.8 |
| 20260509045049 | 61 | 305 | 0.0 | 0.0 | 0.00 | 0.87 | 0.59 | 91 | 1002.8 |
| 20260509044547 | 62 | 305 | 0.0 | 0.0 | 0.00 | 0.87 | 0.59 | 91 | 1002.7 |
| 20260509044044 | 62 | 305 | 0.0 | 0.0 | 0.00 | 0.87 | 0.59 | 91 | 1002.9 |
| 20260509043941 | 62 | 305 | 0.0 | 0.0 | 0.00 | 0.87 | 0.59 | 91 | 1002.7 |
| 20260509043446 | 62 | 305 | 0.0 | 0.0 | 0.00 | 0.87 | 0.59 | 90 | 1002.8 |
| 20260509042542 | 62 | 305 | 0.0 | 0.0 | 0.00 | 0.87 | 0.59 | 89 | 1002.9 |
| 20260509042040 | 62 | 305 | 0.0 | 0.0 | 0.00 | 0.87 | 0.59 | 88 | 1002.8 |
| 20260509041536 | 63 | 305 | 0.0 | 0.0 | 0.00 | 0.87 | 0.59 | 87 | 1002.9 |
| 20260509041034 | 63 | 305 | 0.0 | 0.0 | 0.00 | 0.87 | 0.59 | 86 | 1002.8 |
| 20260509040541 | 64 | 305 | 0.0 | 0.0 | 0.00 | 0.87 | 0.59 | 86 | 1002.9 |
| 20260509040034 | 64 | 305 | 0.0 | 0.0 | 0.00 | 0.89 | 0.59 | 84 | 1002.9 |
| 20260509035529 | 65 | 305 | 0.0 | 1.0 | 0.00 | 0.90 | 0.59 | 82 | 1003.0 |
| 20260509035022 | 65 | 305 | 0.0 | 2.0 | 0.00 | 0.90 | 0.59 | 79 | 1003.0 |
| 20260509034517 | 65 | 326 | 0.0 | 2.0 | 0.00 | 0.90 | 0.59 | 80 | 1003.0 |
| 20260509034139 | 66 | 307 | 0.0 | 2.0 | 0.00 | 0.90 | 0.59 | 81 | 1002.9 |
| 20260509033131 | 68 | 230 | 0.0 | 1.0 | 0.00 | 0.90 | 0.59 | 77 | 1003.0 |
| 20260509031944 | 69 | 227 | 0.0 | 2.0 | 0.00 | 0.90 | 0.59 | 72 | 1003.1 |
| 20260509031437 | 70 | 258 | 0.0 | 3.0 | 0.00 | 0.90 | 0.59 | 70 | 1003.0 |
| 20260509031058 | 70 | 286 | 1.0 | 6.0 | 0.00 | 0.90 | 0.59 | 69 | 1002.9 |
| 20260509025918 | 70 | 231 | 1.0 | 6.0 | 0.00 | 0.90 | 0.59 | 68 | 1002.9 |
| 20260509025412 | 70 | 307 | 1.0 | 7.0 | 0.00 | 0.90 | 0.59 | 67 | 1002.9 |
| 20260509024907 | 71 | 270 | 1.0 | 7.0 | 0.00 | 0.90 | 0.59 | 69 | 1003.1 |
| 20260509024400 | 71 | 301 | 1.0 | 5.0 | 0.00 | 0.90 | 0.59 | 67 | 1003.2 |
| 20260509023855 | 71 | 262 | 1.0 | 5.0 | 0.00 | 0.90 | 0.59 | 70 | 1003.3 |
| 20260509023736 | 71 | 235 | 1.0 | 4.0 | 0.00 | 0.90 | 0.59 | 68 | 1003.3 |
| 20260509022843 | 72 | 305 | 1.0 | 6.0 | 0.00 | 0.90 | 0.59 | 71 | 1003.3 |
| 20260509022507 | 71 | 156 | 1.0 | 12.0 | 0.00 | 0.90 | 0.59 | 66 | 1003.3 |
| 20260509021325 | 72 | 271 | 1.0 | 4.0 | 0.00 | 0.90 | 0.59 | 64 | 1003.2 |
| 20260509020818 | 72 | 248 | 1.0 | 6.0 | 0.00 | 0.90 | 0.59 | 64 | 1003.2 |
| 20260509020313 | 72 | 347 | 1.0 | 6.0 | 0.00 | 0.90 | 0.59 | 64 | 1003.4 |
| 20260509015807 | 73 | 230 | 1.0 | 5.0 | 0.00 | 0.90 | 0.59 | 62 | 1003.4 |
| 20260509015301 | 74 | 286 | 1.0 | 5.0 | 0.00 | 0.90 | 0.59 | 64 | 1003.5 |
| 20260509014755 | 73 | 331 | 2.0 | 6.0 | 0.00 | 0.90 | 0.59 | 68 | 1003.4 |
| 20260509014249 | 73 | 290 | 1.0 | 6.0 | 0.00 | 0.90 | 0.59 | 66 | 1003.5 |
| 20260509013742 | 74 | 278 | 0.0 | 2.0 | 0.00 | 0.90 | 0.59 | 67 | 1003.6 |
| 20260509013237 | 73 | 238 | 0.0 | 2.0 | 0.00 | 0.90 | 0.59 | 74 | 1003.5 |
| 20260509012730 | 72 | 201 | 0.0 | 3.0 | 0.00 | 0.90 | 0.59 | 68 | 1003.6 |
| 20260509012225 | 71 | 251 | 1.0 | 4.0 | 0.00 | 0.90 | 0.59 | 69 | 1003.6 |
| 20260509011719 | 70 | 275 | 1.0 | 6.0 | 0.00 | 0.90 | 0.59 | 72 | 1003.7 |
| 20260509011212 | 70 | 328 | 1.0 | 6.0 | 0.00 | 0.90 | 0.59 | 72 | 1003.8 |
| 20260509010707 | 70 | 265 | 1.0 | 5.0 | 0.00 | 0.90 | 0.59 | 74 | 1003.8 |
| 20260509010200 | 69 | 286 | 1.0 | 5.0 | 0.00 | 0.90 | 0.59 | 75 | 1003.9 |
| 20260509010118 | 70 | 337 | 0.0 | 5.0 | 0.00 | 0.90 | 0.59 | 74 | 1004.0 |
| 20260509005148 | 70 | 281 | 0.0 | 2.0 | 0.00 | 0.90 | 0.59 | 76 | 1004.1 |
| 20260509004642 | 69 | 282 | 0.0 | 2.0 | 0.00 | 0.90 | 0.59 | 78 | 1004.1 |
| 20260509004139 | 69 | 216 | 1.0 | 4.0 | 0.00 | 0.90 | 0.59 | 78 | 1004.1 |
| 20260509003630 | 68 | 156 | 1.0 | 6.0 | 0.00 | 0.90 | 0.59 | 76 | 1004.3 |
| 20260509003124 | 68 | 200 | 1.0 | 6.0 | 0.00 | 0.90 | 0.59 | 76 | 1004.2 |
| 20260509002619 | 68 | 224 | 1.0 | 4.0 | 0.00 | 0.90 | 0.59 | 76 | 1004.4 |
| 20260509002112 | 68 | 278 | 1.0 | 4.0 | 0.00 | 0.90 | 0.59 | 76 | 1004.4 |
| 20260509001603 | 68 | 285 | 1.0 | 4.0 | 0.00 | 0.90 | 0.59 | 79 | 1004.6 |
| 20260509001103 | 67 | 267 | 2.0 | 7.0 | 0.00 | 0.90 | 0.59 | 77 | 1004.6 |
| 20260509000952 | 67 | 343 | 2.0 | 7.0 | 0.00 | 0.90 | 0.59 | 79 | 1004.6 |
| 20260509000044 | 67 | 155 | 2.0 | 6.0 | 0.00 | 0.90 | 0.59 | 80 | 1004.8 |
| 20260508235544 | 67 | 189 | 2.0 | 6.0 | 0.00 | 0.90 | 0.59 | 82 | 1004.9 |
| 20260508235042 | 66 | 245 | 1.0 | 6.0 | 0.00 | 0.90 | 0.59 | 84 | 1005.2 |
| 20260508234739 | 66 | 215 | 1.0 | 4.0 | 0.00 | 0.90 | 0.59 | 82 | 1005.2 |
| 20260508233955 | 66 | 239 | 0.0 | 1.0 | 0.00 | 0.90 | 0.59 | 85 | 1005.5 |
| 20260508233213 | 66 | 233 | 1.0 | 2.0 | 0.00 | 0.90 | 0.59 | 85 | 1005.5 |
| 20260508232444 | 66 | 209 | 0.0 | 2.0 | 0.00 | 0.90 | 0.59 | 85 | 1005.6 |
| 20260508231543 | 65 | 273 | 0.0 | 2.0 | 0.00 | 0.90 | 0.59 | 88 | 1005.7 |
| 20260508231050 | 64 | 189 | 0.0 | 1.0 | 0.00 | 0.90 | 0.59 | 90 | 1005.8 |
| 20260508230536 | 63 | 188 | 0.0 | 1.0 | 0.00 | 0.90 | 0.59 | 91 | 1005.9 |
| 20260508230046 | 63 | 187 | 0.0 | 1.0 | 0.00 | 0.90 | 0.59 | 92 | 1005.9 |
| 20260508225537 | 63 | 188 | 0.0 | 1.0 | 0.00 | 0.90 | 0.59 | 92 | 1006.0 |
| 20260508225032 | 63 | 188 | 0.0 | 2.0 | 0.00 | 0.90 | 0.59 | 94 | 1006.1 |
| 20260508224534 | 62 | 188 | 0.0 | 2.0 | 0.00 | 0.90 | 0.59 | 93 | 1006.0 |
| 20260508224048 | 62 | 151 | 0.0 | 3.0 | 0.00 | 0.90 | 0.59 | 93 | 1006.1 |
| 20260508223531 | 62 | 150 | 0.0 | 3.0 | 0.00 | 0.90 | 0.59 | 93 | 1006.0 |
| 20260508223031 | 62 | 164 | 0.0 | 2.0 | 0.00 | 0.90 | 0.59 | 93 | 1006.1 |
| 20260508222532 | 62 | 133 | 0.0 | 2.0 | 0.00 | 0.90 | 0.59 | 93 | 1006.2 |
| 20260508222032 | 62 | 138 | 0.0 | 2.0 | 0.00 | 0.90 | 0.59 | 93 | 1006.2 |
| 20260508221532 | 62 | 166 | 0.0 | 2.0 | 0.00 | 0.90 | 0.59 | 93 | 1006.3 |
| 20260508221030 | 62 | 188 | 0.0 | 2.0 | 0.00 | 0.90 | 0.59 | 94 | 1006.3 |
| 20260508220904 | 62 | 172 | 0.0 | 3.0 | 0.00 | 0.90 | 0.59 | 94 | 1006.3 |
| 20260508220025 | 61 | 171 | 1.0 | 4.0 | 0.00 | 0.90 | 0.59 | 95 | 1006.4 |
| 20260508215522 | 61 | 142 | 1.0 | 4.0 | 0.00 | 0.90 | 0.59 | 95 | 1006.6 |
| 20260508215024 | 61 | 226 | 0.0 | 1.0 | 0.00 | 0.90 | 0.59 | 96 | 1006.5 |
| 20260508214524 | 61 | 156 | 0.0 | 1.0 | 0.00 | 0.90 | 0.59 | 96 | 1006.5 |
| 20260508214022 | 61 | 144 | 0.0 | 2.0 | 0.00 | 0.90 | 0.59 | 97 | 1006.5 |
| 20260508213521 | 61 | 142 | 0.0 | 2.0 | 0.00 | 0.90 | 0.59 | 97 | 1006.5 |
| 20260508213022 | 61 | 155 | 0.0 | 2.0 | 0.00 | 0.90 | 0.59 | 97 | 1006.5 |
| 20260508212523 | 61 | 161 | 0.0 | 2.0 | 0.00 | 0.90 | 0.59 | 97 | 1006.5 |
| 20260508212410 | 60 | 180 | 1.0 | 4.0 | 0.00 | 0.90 | 0.59 | 97 | 1006.5 |
| 20260508211517 | 60 | 187 | 1.0 | 4.0 | 0.00 | 0.90 | 0.59 | 96 | 1006.7 |
| 20260508211423 | 60 | 184 | 1.0 | 4.0 | 0.00 | 0.90 | 0.59 | 97 | 1006.6 |
| 20260508210512 | 61 | 192 | 1.0 | 4.0 | 0.00 | 0.90 | 0.59 | 98 | 1006.7 |
| 20260508210007 | 61 | 130 | 2.0 | 4.0 | 0.00 | 0.90 | 0.59 | 98 | 1006.7 |
| 20260508205507 | 61 | 188 | 1.0 | 6.0 | 0.00 | 0.90 | 0.59 | 98 | 1006.6 |
| 20260508205007 | 61 | 157 | 0.0 | 6.0 | 0.00 | 0.90 | 0.59 | 98 | 1006.6 |
| 20260508204508 | 61 | 194 | 0.0 | 1.0 | 0.01 | 0.90 | 0.59 | 100 | 1006.6 |
| 20260508204005 | 60 | 194 | 0.0 | 1.0 | 0.01 | 0.90 | 0.59 | 100 | 1006.7 |
| 20260508203505 | 60 | 192 | 0.0 | 1.0 | 0.01 | 0.90 | 0.59 | 100 | 1006.6 |
| 20260508203005 | 60 | 189 | 0.0 | 0.0 | 0.01 | 0.90 | 0.59 | 100 | 1006.7 |
| 20260508202503 | 59 | 189 | 0.0 | 0.0 | 0.01 | 0.90 | 0.59 | 100 | 1006.6 |
| 20260508202005 | 59 | 189 | 0.0 | 0.0 | 0.01 | 0.90 | 0.59 | 100 | 1006.6 |
| 20260508201839 | 59 | 189 | 0.0 | 0.0 | 0.01 | 0.90 | 0.59 | 100 | 1006.7 |
| 20260508200959 | 58 | 189 | 0.0 | 0.0 | 0.01 | 0.90 | 0.59 | 100 | 1006.6 |
| 20260508200454 | 58 | 189 | 0.0 | 2.0 | 0.01 | 0.90 | 0.59 | 100 | 1006.7 |
| 20260508195952 | 58 | 189 | 0.0 | 2.0 | 0.01 | 0.90 | 0.59 | 100 | 1006.6 |
| 20260508195452 | 58 | 183 | 0.0 | 2.0 | 0.01 | 0.90 | 0.59 | 100 | 1006.6 |
| 20260508195349 | 57 | 175 | 0.0 | 2.0 | 0.01 | 0.90 | 0.59 | 100 | 1006.5 |
| 20260508194452 | 57 | 213 | 0.0 | 0.0 | 0.00 | 0.89 | 0.58 | 100 | 1006.6 |
| 20260508194343 | 57 | 213 | 0.0 | 0.0 | 0.00 | 0.89 | 0.58 | 100 | 1006.6 |
| 20260508193451 | 56 | 213 | 0.0 | 0.0 | 0.00 | 0.89 | 0.58 | 100 | 1006.6 |
| 20260508192949 | 56 | 213 | 0.0 | 1.0 | 0.00 | 0.89 | 0.58 | 100 | 1006.4 |
| 20260508192447 | 56 | 213 | 0.0 | 1.0 | 0.00 | 0.89 | 0.58 | 100 | 1006.4 |
| 20260508191952 | 56 | 213 | 0.0 | 0.0 | 0.00 | 0.89 | 0.58 | 100 | 1006.4 |
| 20260508191449 | 56 | 212 | 0.0 | 0.0 | 0.00 | 0.89 | 0.58 | 100 | 1006.6 |
| 20260508190947 | 56 | 212 | 0.0 | 0.0 | 0.00 | 0.89 | 0.58 | 100 | 1006.4 |
| 20260508190454 | 56 | 212 | 0.0 | 0.0 | 0.00 | 0.89 | 0.58 | 100 | 1006.4 |
| 20260508185943 | 56 | 212 | 0.0 | 0.0 | 0.00 | 0.89 | 0.58 | 100 | 1006.3 |
| 20260508185612 | 57 | 212 | 0.0 | 0.0 | 0.00 | 0.89 | 0.58 | 100 | 1006.2 |
| 20260508184424 | 57 | 212 | 0.0 | 0.0 | 0.00 | 0.89 | 0.58 | 100 | 1006.3 |
| 20260508183918 | 56 | 212 | 0.0 | 0.0 | 0.00 | 0.89 | 0.58 | 100 | 1006.3 |
| 20260508183412 | 56 | 212 | 0.0 | 0.0 | 0.00 | 0.89 | 0.58 | 100 | 1006.4 |
| 20260508182906 | 57 | 212 | 0.0 | 0.0 | 0.00 | 0.89 | 0.58 | 99 | 1006.2 |
| 20260508182801 | 57 | 212 | 0.0 | 0.0 | 0.00 | 0.89 | 0.58 | 99 | 1006.0 |
| 20260508181854 | 57 | 212 | 0.0 | 0.0 | 0.02 | 0.89 | 0.58 | 99 | 1006.1 |
| 20260508181355 | 58 | 212 | 0.0 | 0.0 | 0.02 | 0.89 | 0.58 | 100 | 1006.1 |
| 20260508180854 | 58 | 212 | 0.0 | 0.0 | 0.02 | 0.89 | 0.58 | 100 | 1006.2 |
| 20260508180353 | 58 | 212 | 0.0 | 0.0 | 0.02 | 0.89 | 0.58 | 100 | 1006.1 |
| 20260508175852 | 58 | 212 | 0.0 | 0.0 | 0.02 | 0.89 | 0.58 | 100 | 1006.1 |
| 20260508175352 | 58 | 212 | 0.0 | 1.0 | 0.02 | 0.89 | 0.58 | 100 | 1006.4 |
| 20260508174852 | 58 | 212 | 0.0 | 1.0 | 0.02 | 0.89 | 0.58 | 100 | 1006.3 |
| 20260508174749 | 58 | 212 | 0.0 | 0.0 | 0.02 | 0.89 | 0.58 | 99 | 1006.3 |
| 20260508173851 | 58 | 212 | 0.0 | 1.0 | 0.02 | 0.89 | 0.58 | 99 | 1006.1 |
| 20260508173353 | 58 | 212 | 0.0 | 1.0 | 0.02 | 0.89 | 0.58 | 99 | 1006.0 |
| 20260508172851 | 58 | 239 | 0.0 | 0.0 | 0.02 | 0.89 | 0.58 | 99 | 1005.9 |
| 20260508172353 | 58 | 239 | 0.0 | 0.0 | 0.01 | 0.88 | 0.57 | 99 | 1005.6 |
| 20260508171850 | 58 | 239 | 0.0 | 0.0 | 0.00 | 0.87 | 0.57 | 99 | 1005.8 |
| 20260508171346 | 58 | 239 | 0.0 | 0.0 | 0.00 | 0.87 | 0.57 | 99 | 1005.6 |
| 20260508171222 | 58 | 239 | 0.0 | 0.0 | 0.00 | 0.87 | 0.57 | 99 | 1005.6 |
| 20260508170344 | 58 | 239 | 0.0 | 0.0 | 0.01 | 0.87 | 0.57 | 99 | 1005.8 |
| 20260508165842 | 59 | 230 | 0.0 | 0.0 | 0.01 | 0.87 | 0.57 | 99 | 1005.7 |
| 20260508165342 | 59 | 230 | 0.0 | 0.0 | 0.02 | 0.87 | 0.57 | 99 | 1005.6 |
| 20260508164842 | 59 | 230 | 0.0 | 0.0 | 0.02 | 0.87 | 0.57 | 99 | 1005.5 |
| 20260508164341 | 59 | 230 | 0.0 | 1.0 | 0.02 | 0.87 | 0.57 | 99 | 1005.5 |
| 20260508163837 | 59 | 230 | 0.0 | 1.0 | 0.02 | 0.87 | 0.57 | 99 | 1005.6 |
| 20260508163337 | 59 | 235 | 0.0 | 1.0 | 0.02 | 0.87 | 0.57 | 99 | 1005.6 |
| 20260508163237 | 59 | 234 | 0.0 | 1.0 | 0.02 | 0.87 | 0.57 | 99 | 1005.8 |
| 20260508162337 | 59 | 238 | 0.0 | 0.0 | 0.04 | 0.87 | 0.57 | 98 | 1005.9 |
| 20260508161835 | 59 | 237 | 0.0 | 0.0 | 0.06 | 0.87 | 0.57 | 98 | 1005.9 |
| 20260508161724 | 60 | 238 | 0.0 | 1.0 | 0.13 | 0.87 | 0.57 | 98 | 1006.1 |
| 20260508160834 | 60 | 237 | 0.0 | 2.0 | 0.15 | 0.87 | 0.57 | 98 | 1006.2 |
| 20260508160336 | 60 | 296 | 0.0 | 2.0 | 0.17 | 0.87 | 0.56 | 98 | 1006.2 |
| 20260508155834 | 60 | 234 | 0.0 | 1.0 | 0.17 | 0.87 | 0.56 | 98 | 1006.2 |
| 20260508155732 | 60 | 234 | 0.0 | 5.0 | 0.19 | 0.86 | 0.55 | 97 | 1006.3 |
| 20260508155233 | 61 | 0 | 0.0 | 5.0 | 0.19 | 0.85 | 0.55 | 97 | 1006.5 |
| 20260508154337 | 61 | 240 | 0.0 | 0.0 | 0.21 | 0.85 | 0.54 | 98 | 1006.2 |
| 20260508153835 | 61 | 240 | 0.0 | 2.0 | 0.22 | 0.85 | 0.54 | 97 | 1006.1 |
| 20260508153336 | 62 | 242 | 1.0 | 5.0 | 0.24 | 0.85 | 0.54 | 97 | 1006.2 |
| 20260508152836 | 62 | 73 | 2.0 | 9.0 | 0.24 | 0.85 | 0.54 | 97 | 1006.4 |
| 20260508152336 | 62 | 265 | 5.0 | 20.0 | 0.23 | 0.83 | 0.53 | 96 | 1006.2 |
| 20260508152241 | 64 | 241 | 4.0 | 20.0 | 0.20 | 0.80 | 0.50 | 99 | 1006.2 |
| 20260508151332 | 64 | 137 | 3.0 | 8.0 | 0.15 | 0.75 | 0.45 | 99 | 1005.9 |
| 20260508150832 | 64 | 137 | 5.0 | 16.0 | 0.13 | 0.72 | 0.42 | 99 | 1005.8 |
| 20260508150536 | 64 | 217 | 5.0 | 16.0 | 0.11 | 0.70 | 0.40 | 99 | 1005.7 |
| 20260508145332 | 64 | 116 | 6.0 | 17.0 | 0.09 | 0.67 | 0.37 | 98 | 1006.1 |
| 20260508144829 | 64 | 182 | 6.0 | 17.0 | 0.09 | 0.66 | 0.35 | 98 | 1006.0 |
| 20260508144734 | 64 | 171 | 3.0 | 10.0 | 0.08 | 0.65 | 0.34 | 98 | 1006.3 |
| 20260508144240 | 64 | 154 | 4.0 | 14.0 | 0.10 | 0.64 | 0.32 | 97 | 1006.2 |
| 20260508143326 | 64 | 172 | 4.0 | 14.0 | 0.12 | 0.62 | 0.31 | 97 | 1006.3 |
| 20260508142827 | 64 | 236 | 4.0 | 14.0 | 0.14 | 0.62 | 0.30 | 98 | 1006.5 |
| 20260508142326 | 64 | 344 | 4.0 | 14.0 | 0.16 | 0.62 | 0.30 | 98 | 1006.3 |
| 20260508141826 | 64 | 185 | 4.0 | 10.0 | 0.16 | 0.61 | 0.29 | 98 | 1006.5 |
| 20260508141325 | 64 | 131 | 4.0 | 13.0 | 0.17 | 0.61 | 0.29 | 98 | 1006.4 |
| 20260508140832 | 63 | 199 | 5.0 | 13.0 | 0.18 | 0.61 | 0.29 | 98 | 1006.7 |
| 20260508140341 | 64 | 180 | 6.0 | 12.0 | 0.19 | 0.61 | 0.28 | 98 | 1006.7 |
| 20260508135825 | 63 | 208 | 6.0 | 18.0 | 0.20 | 0.60 | 0.28 | 98 | 1007.0 |
| 20260508135325 | 63 | 194 | 5.0 | 18.0 | 0.19 | 0.59 | 0.27 | 98 | 1006.9 |
| 20260508134818 | 63 | 120 | 5.0 | 17.0 | 0.20 | 0.58 | 0.26 | 98 | 1007.2 |
| 20260508134312 | 63 | 198 | 6.0 | 17.0 | 0.20 | 0.57 | 0.25 | 98 | 1007.2 |
| 20260508133805 | 63 | 175 | 4.0 | 13.0 | 0.18 | 0.54 | 0.23 | 98 | 1007.4 |
| 20260508133716 | 63 | 167 | 4.0 | 12.0 | 0.17 | 0.51 | 0.20 | 98 | 1007.1 |
| 20260508133201 | 63 | 149 | 5.0 | 13.0 | 0.13 | 0.47 | 0.16 | 98 | 1007.0 |
| 20260508132247 | 63 | 154 | 5.0 | 15.0 | 0.13 | 0.46 | 0.14 | 98 | 1007.2 |
| 20260508131746 | 63 | 182 | 4.0 | 11.0 | 0.13 | 0.46 | 0.13 | 98 | 1007.2 |
| 20260508131235 | 63 | 144 | 4.0 | 10.0 | 0.12 | 0.45 | 0.13 | 98 | 1007.2 |
| 20260508130729 | 63 | 124 | 4.0 | 10.0 | 0.10 | 0.43 | 0.11 | 98 | 1007.4 |
| 20260508130223 | 63 | 138 | 4.0 | 9.0 | 0.09 | 0.42 | 0.09 | 98 | 1007.6 |
| 20260508125717 | 63 | 151 | 5.0 | 12.0 | 0.08 | 0.40 | 0.08 | 97 | 1007.6 |
| 20260508125212 | 63 | 158 | 5.0 | 12.0 | 0.09 | 0.40 | 0.08 | 97 | 1007.9 |
| 20260508124705 | 63 | 143 | 4.0 | 11.0 | 0.07 | 0.39 | 0.06 | 97 | 1008.1 |
| 20260508124202 | 63 | 124 | 3.0 | 11.0 | 0.06 | 0.37 | 0.05 | 97 | 1008.2 |
| 20260508123704 | 63 | 206 | 3.0 | 9.0 | 0.06 | 0.35 | 0.03 | 97 | 1008.4 |
| 20260508123348 | 63 | 151 | 3.0 | 9.0 | 0.06 | 0.35 | 0.02 | 97 | 1008.3 |
| 20260508122202 | 63 | 174 | 3.0 | 8.0 | 0.06 | 0.34 | 0.02 | 97 | 1008.6 |
| 20260508122059 | 63 | 107 | 4.0 | 10.0 | 0.05 | 0.33 | 0.02 | 97 | 1008.5 |
| 20260508121211 | 63 | 199 | 3.0 | 10.0 | 0.05 | 0.33 | 0.01 | 97 | 1008.5 |
| 20260508120709 | 63 | 182 | 3.0 | 9.0 | 0.04 | 0.32 | 0.00 | 97 | 1008.7 |
| 20260508120204 | 63 | 184 | 4.0 | 9.0 | 0.05 | 0.32 | 0.00 | 97 | 1008.9 |
| 20260508115702 | 63 | 105 | 5.0 | 10.0 | 0.05 | 0.32 | 0.32 | 96 | 1009.1 |
| 20260508115202 | 63 | 151 | 4.0 | 10.0 | 0.04 | 0.31 | 0.32 | 96 | 1009.1 |
| 20260508114703 | 63 | 151 | 3.0 | 9.0 | 0.04 | 0.31 | 0.31 | 96 | 1009.2 |
| 20260508114202 | 63 | 165 | 4.0 | 9.0 | 0.03 | 0.31 | 0.31 | 96 | 1009.4 |
| 20260508113702 | 64 | 75 | 4.0 | 12.0 | 0.02 | 0.29 | 0.29 | 95 | 1009.4 |
| 20260508113158 | 64 | 148 | 4.0 | 12.0 | 0.01 | 0.28 | 0.28 | 95 | 1009.6 |
| 20260508112703 | 64 | 163 | 4.0 | 12.0 | 0.01 | 0.28 | 0.28 | 95 | 1009.7 |
| 20260508112157 | 64 | 114 | 4.0 | 11.0 | 0.01 | 0.28 | 0.28 | 95 | 1009.6 |
| 20260508111650 | 64 | 100 | 5.0 | 10.0 | 0.01 | 0.28 | 0.28 | 95 | 1009.6 |
| 20260508111535 | 64 | 37 | 5.0 | 12.0 | 0.01 | 0.28 | 0.28 | 94 | 1009.8 |
| 20260508110637 | 64 | 163 | 4.0 | 12.0 | 0.01 | 0.28 | 0.28 | 95 | 1010.1 |
| 20260508110132 | 64 | 185 | 4.0 | 10.0 | 0.01 | 0.28 | 0.28 | 95 | 1010.0 |
| 20260508105628 | 64 | 172 | 4.0 | 10.0 | 0.01 | 0.28 | 0.28 | 95 | 1010.1 |